Flag for U.S.A. Weather past 2 weeks in Baltimore, Maryland, U.S.A.

Now
69 °F

Partly cloudy.


Feels Like: 69 °F
Forecast: 67 / 77 °F
Wind: 7 mph from East

Location: Baltimore-Washington International Airport

Current Time: Aug 23, 2014 at 4:03:46 AM

Latest Report: Aug 23, 2014 at 2:54 AM


Visibility: 10 mi

Pressure: 30.00 "Hg

Humidity: 87%

Dew point: 65 °F

Location of BaltimoreLocation

Historic Weather in Baltimore — Graph

°F

Baltimore temperature yesterday

Maximum temperature yesterday: 78 °F (at 11:54 AM)
Minimum temperature yesterday: 69 °F (at 4:54 AM)
Average temperature yesterday: 74 °F

Past Weeks' High & Low Weather Summary

 TemperatureHumidityPressure
High86 °F (Aug 17, 2:54 PM)100% (Aug 12, 1:00 PM)30.14 "Hg (Aug 12, 1:00 PM)
Low55 °F (Aug 15, 5:54 AM)35% (Aug 8, 12:54 PM)29.73 "Hg (Aug 13, 4:54 AM)
Average73 °F70%29.96 "Hg
* Reported Aug 8 2:54 AM — Aug 23 2:54 AM, Baltimore, Weather by CustomWeather, © 2014

Note: Actual official high and low records may vary slightly from our data, if they occured in-between our weather recording intervals... More about our weather records

Advertising

Baltimore weather history for previous 24 hours

 ConditionsComfort  
Time TempWeatherWind HumidityBarometerVisibility
2:54 AM
Aug 23
69 °FPartly cloudy.7 mph87%30.00 "Hg10 mi
1:54 AM71 °FPassing clouds.7 mph81%29.99 "Hg10 mi
12:54 AM71 °FPartly cloudy.8 mph84%30.00 "Hg10 mi
11:54 PM
Aug 22
72 °FPassing clouds.7 mph84%30.01 "Hg10 mi
10:54 PM73 °FPassing clouds.6 mph81%30.01 "Hg10 mi
9:54 PM73 °FPassing clouds.7 mph81%29.99 "Hg10 mi
8:54 PM74 °FPartly cloudy.6 mph82%29.98 "Hg10 mi
7:54 PM75 °FBroken clouds.6 mph79%29.96 "Hg10 mi
6:54 PM76 °FBroken clouds.8 mph77%29.96 "Hg10 mi
5:54 PM77 °FOvercast.8 mph69%29.96 "Hg10 mi
4:54 PM78 °FMostly cloudy.5 mph74%29.95 "Hg10 mi
3:54 PM77 °FMore clouds than sun.6 mph77%29.96 "Hg10 mi
2:54 PM77 °FCloudy.6 mph77%29.97 "Hg10 mi
1:54 PM77 °FLight rain. Mostly cloudy.7 mph77%29.98 "Hg10 mi
12:54 PM77 °FMore clouds than sun.No wind74%29.98 "Hg10 mi
11:54 AM78 °FMostly cloudy.No wind71%29.98 "Hg9 mi
10:54 AM76 °FMostly cloudy.8 mph80%29.99 "Hg9 mi
9:54 AM75 °FMostly cloudy.7 mph82%29.99 "Hg7 mi
8:54 AM74 °FOvercast.5 mph82%30.00 "Hg8 mi
7:54 AM72 °FScattered clouds.5 mph84%29.98 "Hg8 mi
6:54 AM70 °FFog.No wind90%29.97 "Hg6 mi
5:54 AM70 °FPartly cloudy.No wind90%29.96 "Hg9 mi
4:54 AM69 °FPassing clouds.No wind90%29.95 "Hg8 mi
Weather by CustomWeather, © 2014

See weather overviewHow to use our weather pages